Weather History for KVOK - December, 2012

Change the Weather History Date:

Sunday, December 16, 2012

  Actual Average Record
Temperature  
Mean Temperature 34 °F -  
Max Temperature 39 °F 27 °F 44 °F (1997)
Min Temperature 29 °F 15 °F -9 °F (2008)
Degree Days  
Heating Degree Days 30    
Moisture  
Dew Point 36 °F    
Average Humidity 98    
Maximum Humidity 100    
Minimum Humidity 92    
Precipitation  
Precipitation 0.09 in - - ()
Sea Level Pressure  
Sea Level Pressure 29.58 in    
Wind  
Wind Speed 5 mph (WNW)    
Max Wind Speed 14 mph    
Max Gust Speed -    
Visibility 6 miles    
Events Fog , Rain    
Averages and records for this station are not official NWS values.
T = Trace of Precipitation, MM = Missing Value Source: NWS Daily Summary

Daily Weather History Graph

Daily Weather History Graph

Search for Another Location

Airport or City:

Trip Planner

Search our weather history database for the weather conditions in past years. The results will help you decide how hot, cold, wet, or windy it might be!

Date:

Astronomy

Dec. 16, 2012 Rise Set
Actual Time 7:29 AM CST 4:24 PM CST
Civil Twilight 6:56 AM CST 4:57 PM CST
Nautical Twilight 6:20 AM CST 5:33 PM CST
Astronomical Twilight 5:45 AM CST 6:08 PM CST
Moon 9:57 AM CST (12/16) 8:45 PM CST (12/16)
Length of Visible Light 10h 00m
Length of Day
8h 54m
Waxing Crescent, 16% of the Moon is Illuminated
Dec 16
Waxing Crescent
Dec 19
First Quarter
Dec 28
Full
Jan 4
Last Quarter
Jan 11
New

Hourly Weather History & Observations

Time (CST) Temp. Windchill Dew Point Humidity Pressure Visibility Wind Dir Wind Speed Gust Speed Precip Events Conditions
12:55 AM 37.8 °F 35.3 °F 37.6 °F 99% 29.51 in 0.5 mi ESE 3.5 mph - N/A Fog Fog
12:56 AM 37.4 °F 34.9 °F 37.4 °F 100% 29.51 in 0.8 mi ESE 3.5 mph - N/A   Mostly Cloudy
12:58 AM 37.4 °F 34.9 °F 37.4 °F 100% 29.51 in 0.8 mi ESE 3.5 mph - N/A   Mostly Cloudy
12:59 AM 37.4 °F 34.9 °F 37.4 °F 100% 29.52 in 0.8 mi ESE 3.5 mph - N/A   Light Drizzle
1:16 AM 37.4 °F - 37.4 °F 100% 29.51 in 0.8 mi Calm Calm - N/A Rain Light Rain
1:20 AM 37.4 °F 34.9 °F 37.4 °F 100% 29.51 in 0.8 mi SE 3.5 mph - N/A Rain Light Rain
1:23 AM 37.4 °F - 37.4 °F 100% 29.51 in 1.0 mi Calm Calm - N/A Rain Light Rain
1:26 AM 37.4 °F - 37.4 °F 100% 29.52 in 1.0 mi Calm Calm - N/A Rain Light Rain
1:27 AM 37.4 °F - 37.4 °F 100% 29.52 in 1.0 mi Calm Calm - N/A Rain Light Rain
1:30 AM 37.4 °F 34.9 °F 37.4 °F 100% 29.52 in 1.0 mi SSE 3.5 mph - N/A Rain Light Rain
1:34 AM 37.4 °F - 37.4 °F 100% 29.52 in 1.0 mi Calm Calm - N/A Rain Light Rain
1:42 AM 37.4 °F - 37.4 °F 100% 29.52 in 1.2 mi Calm Calm - N/A Rain Light Rain
1:49 AM 39.2 °F - 37.4 °F 93% 29.52 in 1.2 mi Calm Calm - N/A   Light Drizzle
1:51 AM 39.2 °F - 37.4 °F 93% 29.52 in 1.2 mi Calm Calm - N/A   Light Drizzle
1:54 AM 39.2 °F - 39.2 °F 100% 29.52 in 1.5 mi Calm Calm - N/A   Light Drizzle
1:55 AM 38.7 °F - 38.3 °F 99% 29.52 in 1.5 mi Calm Calm - 0.03 in   Light Drizzle
1:58 AM 39.2 °F - 39.2 °F 100% 29.52 in 1.5 mi Calm Calm - N/A   Light Drizzle
1:59 AM 39.2 °F - 39.2 °F 100% 29.52 in 1.8 mi Calm Calm - N/A   Light Drizzle
2:02 AM 39.2 °F - 39.2 °F 100% 29.52 in 2.0 mi Calm Calm - N/A   Light Drizzle
2:16 AM 39.2 °F - 39.2 °F 100% 29.52 in 2.5 mi Calm Calm - N/A   Light Drizzle
2:25 AM 39.2 °F - 39.2 °F 100% 29.52 in 2.5 mi Calm Calm - N/A   Overcast
2:27 AM 39.2 °F - 39.2 °F 100% 29.52 in 2.5 mi Calm Calm - N/A   Overcast
2:43 AM 39.2 °F - 39.2 °F 100% 29.52 in 2.5 mi Calm Calm - N/A   Overcast
2:55 AM 38.7 °F - 38.5 °F 99% 29.52 in 2.5 mi Calm Calm - 0.02 in   Overcast
2:58 AM 39.2 °F - 39.2 °F 100% 29.52 in 2.5 mi Calm Calm - N/A   Overcast
3:14 AM 39.2 °F - 39.2 °F 100% 29.52 in 2.0 mi Calm Calm - N/A Rain Light Rain
3:17 AM 39.2 °F - 39.2 °F 100% 29.52 in 1.8 mi Calm Calm - N/A Rain Light Rain
3:18 AM 39.2 °F - 39.2 °F 100% 29.52 in 1.5 mi Calm Calm - N/A Rain Light Rain
3:21 AM 39.2 °F - 39.2 °F 100% 29.52 in 1.2 mi Calm Calm - N/A Rain Light Rain
3:32 AM 39.2 °F - 37.4 °F 93% 29.52 in 1.2 mi Calm Calm - N/A Rain Light Rain
3:35 AM 39.2 °F - 37.4 °F 93% 29.52 in 1.5 mi Calm Calm - N/A Rain Light Rain
3:41 AM 39.2 °F - 37.4 °F 93% 29.53 in 1.8 mi Calm Calm - N/A Rain Light Rain
3:49 AM 39.2 °F 35.9 °F 37.4 °F 93% 29.53 in 2.0 mi West 4.6 mph - N/A Rain Light Rain
3:53 AM 39.2 °F 37.0 °F 37.4 °F 93% 29.53 in 1.8 mi West 3.5 mph - N/A Rain Light Rain
3:55 AM 38.5 °F 35.0 °F 38.3 °F 99% 29.53 in 1.8 mi West 4.6 mph - 0.02 in Rain Light Rain
3:56 AM 39.2 °F 35.9 °F 37.4 °F 93% 29.53 in 2.0 mi West 4.6 mph - N/A Rain Light Rain
3:57 AM 39.2 °F 37.0 °F 39.2 °F 100% 29.53 in 2.0 mi West 3.5 mph - N/A Rain Light Rain
4:01 AM 39.2 °F 37.0 °F 39.2 °F 100% 29.53 in 2.5 mi WNW 3.5 mph - N/A Rain Light Rain
4:04 AM 39.2 °F 35.0 °F 39.2 °F 100% 29.53 in 3.0 mi WNW 5.8 mph - N/A Rain Light Rain
4:12 AM 39.2 °F 33.6 °F 39.2 °F 100% 29.53 in 5.0 mi WNW 8.1 mph - N/A Rain Light Rain
4:23 AM 39.2 °F 32.5 °F 39.2 °F 100% 29.53 in 8.0 mi WNW 10.4 mph - N/A Rain Light Rain
4:46 AM 39.2 °F 32.5 °F 39.2 °F 100% 29.54 in 10.0 mi WNW 10.4 mph - N/A Rain Light Rain
4:55 AM 39.0 °F 31.4 °F 38.8 °F 99% 29.54 in 10.0 mi West 12.7 mph - 0.02 in Rain Light Rain
4:58 AM 39.2 °F 32.5 °F 39.2 °F 100% 29.54 in 10.0 mi WNW 10.4 mph - N/A   Light Drizzle
5:01 AM 39.2 °F 32.0 °F 39.2 °F 100% 29.55 in 10.0 mi West 11.5 mph - N/A   Light Drizzle
5:12 AM 39.2 °F 31.6 °F 39.2 °F 100% 29.55 in 10.0 mi West 12.7 mph - N/A   Overcast
5:33 AM 37.4 °F 30.3 °F 37.4 °F 100% 29.55 in 10.0 mi WNW 10.4 mph - N/A   Overcast
5:38 AM 37.4 °F 30.8 °F 37.4 °F 100% 29.55 in 10.0 mi WNW 9.2 mph - N/A   Light Drizzle
5:39 AM 37.4 °F 30.3 °F 37.4 °F 100% 29.55 in 10.0 mi WNW 10.4 mph - N/A   Light Drizzle
5:45 AM 37.4 °F 30.8 °F 37.4 °F 100% 29.56 in 10.0 mi WNW 9.2 mph - N/A   Light Drizzle
5:49 AM 37.4 °F 30.3 °F 37.4 °F 100% 29.56 in 10.0 mi WNW 10.4 mph - N/A   Light Drizzle
5:50 AM 37.4 °F 30.3 °F 37.4 °F 100% 29.56 in 10.0 mi WNW 10.4 mph - N/A   Overcast
5:55 AM 37.6 °F 31.0 °F 37.4 °F 99% 29.56 in 10.0 mi WNW 9.2 mph - 0.00 in   Overcast
6:06 AM 37.4 °F 29.8 °F 37.4 °F 100% 29.57 in 10.0 mi WNW 11.5 mph - N/A   Overcast
6:20 AM 37.4 °F 28.9 °F 37.4 °F 100% 29.58 in 10.0 mi West 13.8 mph - N/A   Overcast
6:23 AM 37.4 °F 28.9 °F 37.4 °F 100% 29.58 in 10.0 mi WNW 13.8 mph - N/A   Overcast
6:40 AM 37.4 °F 29.3 °F 37.4 °F 100% 29.59 in 10.0 mi West 12.7 mph - N/A   Overcast
6:47 AM 37.4 °F 29.3 °F 35.6 °F 93% 29.59 in 10.0 mi WNW 12.7 mph - N/A   Overcast
6:49 AM 37.4 °F 28.9 °F 35.6 °F 93% 29.59 in 10.0 mi WNW 13.8 mph - N/A   Overcast
6:54 AM 35.6 °F 26.6 °F 35.6 °F 100% 29.60 in 10.0 mi West 13.8 mph - N/A   Light Drizzle
6:55 AM 36.3 °F 28.4 °F 36.1 °F 99% 29.60 in 10.0 mi West 11.5 mph - 0.00 in   Light Drizzle
7:16 AM 35.6 °F 29.2 °F 35.6 °F 100% 29.58 in 10.0 mi WNW 8.1 mph - N/A   Light Drizzle
7:28 AM 35.6 °F 28.0 °F 35.6 °F 100% 29.58 in 10.0 mi WNW 10.4 mph - N/A   Overcast
7:53 AM 33.8 °F 27.0 °F 33.8 °F 100% 29.57 in 10.0 mi NW 8.1 mph - N/A   Overcast
7:55 AM 33.8 °F 27.0 °F 33.8 °F 100% 29.60 in 10.0 mi NW 8.1 mph - N/A   Overcast
8:10 AM 35.6 °F 28.6 °F 33.8 °F 93% 29.58 in 10.0 mi West 9.2 mph - N/A   Overcast
8:55 AM 35.6 °F 28.6 °F 33.8 °F 93% 29.61 in 10.0 mi WNW 9.2 mph - N/A   Overcast
9:55 AM 35.6 °F 28.6 °F 35.6 °F 100% 29.64 in 10.0 mi West 9.2 mph - N/A   Overcast
10:55 AM 35.6 °F 27.5 °F 35.6 °F 100% 29.65 in 10.0 mi WNW 11.5 mph - N/A   Overcast
11:55 AM 35.6 °F 28.0 °F 35.6 °F 100% 29.65 in 10.0 mi WNW 10.4 mph - N/A   Overcast
12:15 PM 35.6 °F 28.0 °F 35.6 °F 100% 29.64 in 10.0 mi WNW 10.4 mph - N/A   Overcast
12:55 PM 35.6 °F 27.1 °F 35.6 °F 100% 29.64 in 10.0 mi WNW 12.7 mph - N/A   Overcast
1:55 PM 35.6 °F 27.5 °F 35.6 °F 100% 29.65 in 10.0 mi WNW 11.5 mph - N/A   Overcast
2:55 PM 35.6 °F 28.6 °F 35.6 °F 100% 29.66 in 10.0 mi WNW 9.2 mph - N/A   Overcast
3:55 PM 35.6 °F 29.2 °F 33.8 °F 93% 29.66 in 10.0 mi WNW 8.1 mph - N/A   Overcast
4:47 PM 35.6 °F 28.0 °F 33.8 °F 93% 29.67 in 5.0 mi WNW 10.4 mph - N/A   Overcast
4:48 PM 35.6 °F 27.5 °F 33.8 °F 93% 29.67 in 4.0 mi WNW 11.5 mph - N/A   Overcast
4:55 PM 34.7 °F 26.4 °F 34.0 °F 97% 29.67 in 4.0 mi West 11.5 mph - N/A   Overcast
5:46 PM 33.8 °F 25.8 °F 33.8 °F 100% 29.68 in 6.0 mi WNW 10.4 mph - N/A   Overcast
5:55 PM 33.8 °F 25.8 °F 32.7 °F 96% 29.68 in 7.0 mi WNW 10.4 mph - N/A   Overcast
6:01 PM 33.8 °F 24.8 °F 32.0 °F 93% 29.68 in 7.0 mi West 12.7 mph - N/A   Overcast
6:27 PM 33.8 °F 26.4 °F 32.0 °F 93% 29.69 in 7.0 mi WNW 9.2 mph - N/A   Overcast
6:40 PM 33.8 °F 25.8 °F 32.0 °F 93% 29.70 in 6.0 mi WNW 10.4 mph - N/A   Overcast
6:55 PM 32.9 °F 25.3 °F 31.6 °F 95% 29.70 in 6.0 mi West 9.2 mph - N/A   Overcast
6:59 PM 32.0 °F 24.2 °F 32.0 °F 100% 29.71 in 6.0 mi West 9.2 mph - N/A   Overcast
7:38 PM 32.0 °F 23.0 °F 30.2 °F 93% 29.72 in 6.0 mi West 11.5 mph - N/A   Overcast
7:55 PM 31.5 °F 22.9 °F 30.2 °F 95% 29.72 in 6.0 mi West 10.4 mph - N/A   Overcast
8:55 PM 31.3 °F 24.7 °F 30.0 °F 95% 29.74 in 5.0 mi WNW 6.9 mph - N/A   Overcast
9:55 PM 30.9 °F 22.8 °F 29.7 °F 95% 29.74 in 6.0 mi WNW 9.2 mph - N/A   Overcast
9:56 PM 30.2 °F 22.6 °F 30.2 °F 100% 29.74 in 6.0 mi WNW 8.1 mph - N/A   Overcast
10:37 PM 30.2 °F 21.9 °F 28.4 °F 93% 29.73 in 9.0 mi West 9.2 mph - N/A   Overcast
10:55 PM 30.2 °F 21.3 °F 28.6 °F 94% 29.74 in 8.0 mi West 10.4 mph - N/A   Overcast
10:57 PM 30.2 °F 21.9 °F 28.4 °F 93% 29.74 in 8.0 mi West 9.2 mph - N/A   Overcast
11:55 PM 29.3 °F 19.1 °F 27.3 °F 92% 29.75 in 9.0 mi West 12.7 mph - N/A   Overcast